Home   Weather   Tucumán   Past weeks

Flag for Argentina Past Weather in Tucumán, Tucumán, Argentina — Yesterday and Last 2 Weeks

Now
84 °F

Partly sunny.


Feels Like: 91 °F
Forecast: N/A
Wind: 12 mph from East

Location: Tucuman Aerodrome

Current Time: Feb 20, 2017 at 8:06:54 pm

Latest Report: Feb 20, 2017 at 7:00 pm


Visibility: N/A

Pressure: 29.92 "Hg

Humidity: 70%

Dew Point: 73 °F

Location of TucumánLocation

Past Weather in Tucumán — Graph

°F

Tucumán Temperature Yesterday

Maximum temperature yesterday: 81 °F (at 4:00 pm)
Minimum temperature yesterday: 66 °F (at 3:00 am)
Average temperature yesterday: 72 °F

High & Low Weather Summary for the Past Weeks

 TemperatureHumidityPressure
High97 °F (Feb 16, 5:00 pm)100% (Feb 10, 9:00 am)30.12 "Hg (Feb 10, 9:00 am)
Low64 °F (Feb 5, 7:00 pm)34% (Feb 5, 7:00 pm)29.59 "Hg (Feb 17, 7:00 pm)
Average76 °F76%29.89 "Hg
* Reported Feb 5 6:00 pm — Feb 20 6:00 pm, Tucumán, Weather by CustomWeather, © 2017

Note: Actual official high and low records may vary slightly from our data, if they occured in-between our weather recording intervals... More about our weather records

Advertising

Tucumán Weather History for the Previous 24 Hours

Scroll right to see more
 ConditionsComfort  
Time TempWeatherWind HumidityBarometerVisibility
6:00 pm
Mon, Feb 20
84 °FPartly sunny.12 mph70%29.92 "HgN/A
5:00 pm86 °FBroken clouds.17 mph70%29.92 "HgN/A
4:00 pm86 °FBroken clouds.17 mph66%29.95 "HgN/A
3:00 pm86 °FPartly sunny.8 mph66%29.95 "HgN/A
2:00 pm86 °FPartly sunny.10 mph62%29.98 "HgN/A
1:00 pm86 °FScattered clouds.13 mph66%29.98 "HgN/A
12:00 pm84 °FScattered clouds.6 mph66%29.98 "HgN/A
11:00 am84 °FPassing clouds.7 mph66%30.01 "HgN/A
10:00 am81 °FSunny.8 mph70%30.01 "Hg10 mi
9:00 am75 °FSunny.No wind83%30.04 "Hg10 mi
8:00 am73 °FSunny.No wind89%30.04 "Hg10 mi
7:00 am72 °FPartly cloudy.2 mph94%30.01 "HgN/A
6:00 am72 °FMostly cloudy.No wind94%29.98 "Hg6 mi
5:00 am72 °FPartly cloudy.No wind94%29.98 "Hg6 mi
4:00 am72 °FPartly cloudy.2 mph94%29.98 "Hg6 mi
3:00 am72 °FPartly cloudy.7 mph94%30.01 "Hg6 mi
2:00 am72 °FPartly cloudy.7 mph94%30.01 "Hg6 mi
1:00 am73 °FPartly cloudy.6 mph89%30.01 "Hg6 mi
12:00 am73 °FPassing clouds.9 mph83%30.01 "Hg6 mi
11:00 pm
Sun, Feb 19
73 °FPassing clouds.9 mph83%30.01 "HgN/A
10:00 pm72 °FPassing clouds.7 mph94%29.98 "HgN/A
9:00 pm73 °FOvercast.7 mph89%29.95 "HgN/A
8:00 pm75 °FPassing clouds.9 mph83%29.92 "HgN/A
Weather by CustomWeather, © 2017

See weather overviewHow to use our weather pages